Time,TemperatureF,DewpointF,PressureIn,WindDirection,WindDirectionDegrees,WindSpeedMPH,WindSpeedGustMPH,Humidity,HourlyPrecipIn,Conditions,Clouds,dailyrainin,SolarRadiationWatts/m^2,SoftwareType,DateUTC
2013-05-22 00:01:00,41.0,40.0,-100.00,NNW,327,0.0,2.0,97,0.01,,,0.48,1.000000,,2013-05-22 07:01:00,
2013-05-22 00:10:00,41.0,40.0,-100.00,NNW,327,0.0,1.0,97,0.03,,,0.51,1.000000,,2013-05-22 07:10:00,
2013-05-22 00:32:00,41.0,40.0,-100.00,NNW,327,0.0,1.0,97,0.03,,,0.51,1.000000,,2013-05-22 07:32:00,
2013-05-22 00:42:00,41.0,40.0,-100.00,NNW,327,0.0,1.0,97,0.03,,,0.51,1.000000,,2013-05-22 07:42:00,
2013-05-22 00:52:00,41.0,40.0,-100.00,NNW,327,0.0,1.0,97,0.03,,,0.51,1.000000,,2013-05-22 07:52:00,
2013-05-22 01:02:00,41.0,40.0,-100.00,NNW,327,0.0,1.0,97,0.03,,,0.51,1.000000,,2013-05-22 08:02:00,
2013-05-22 01:10:00,41.0,40.0,-100.00,South,172,1.0,3.0,98,0.04,,,-99.99,1.000000,,2013-05-22 08:10:00,
2013-05-22 01:32:00,41.0,40.0,-100.00,South,172,1.0,3.0,98,0.04,,,-99.99,1.000000,,2013-05-22 08:32:00,
2013-05-22 01:42:00,41.0,40.0,-100.00,South,172,1.0,3.0,98,0.04,,,-99.99,1.000000,,2013-05-22 08:42:00,
2013-05-22 01:52:00,41.0,40.0,-100.00,South,172,1.0,3.0,98,0.04,,,-99.99,1.000000,,2013-05-22 08:52:00,
2013-05-22 02:01:00,41.0,40.0,-100.00,South,172,1.0,3.0,98,0.04,,,-99.99,1.000000,,2013-05-22 09:01:00,
2013-05-22 02:10:00,40.0,39.0,-100.00,NNW,328,0.0,5.0,96,0.04,,,0.59,1.000000,,2013-05-22 09:10:00,
2013-05-22 02:33:00,40.0,39.0,-100.00,NNW,328,0.0,5.0,96,0.04,,,0.59,1.000000,,2013-05-22 09:33:00,
2013-05-22 02:42:00,40.0,39.0,-100.00,NNW,328,0.0,5.0,96,0.04,,,0.59,1.000000,,2013-05-22 09:42:00,
2013-05-22 02:53:00,40.0,39.0,-100.00,NNW,328,0.0,5.0,96,0.04,,,0.59,1.000000,,2013-05-22 09:53:00,
2013-05-22 03:02:00,40.0,39.0,-100.00,NNW,328,0.0,5.0,96,0.04,,,0.59,1.000000,,2013-05-22 10:02:00,
2013-05-22 03:10:00,39.0,38.0,-100.00,North,350,0.0,2.0,97,0.02,,,0.61,1.000000,,2013-05-22 10:10:00,
2013-05-22 03:33:00,39.0,38.0,-100.00,North,350,0.0,2.0,97,0.02,,,0.61,1.000000,,2013-05-22 10:33:00,
2013-05-22 03:42:00,39.0,38.0,-100.00,North,350,0.0,2.0,97,0.02,,,0.61,1.000000,,2013-05-22 10:42:00,
2013-05-22 03:52:00,39.0,38.0,-100.00,North,350,0.0,2.0,97,0.02,,,0.61,1.000000,,2013-05-22 10:52:00,
2013-05-22 04:02:00,39.0,38.0,-100.00,North,350,0.0,2.0,97,0.02,,,0.61,1.000000,,2013-05-22 11:02:00,
2013-05-22 04:10:00,39.0,38.0,-100.00,North,357,0.0,2.0,98,0.04,,,0.65,1.000000,,2013-05-22 11:10:00,
2013-05-22 04:32:00,39.0,38.0,-100.00,North,357,0.0,2.0,98,0.04,,,0.65,1.000000,,2013-05-22 11:32:00,
2013-05-22 04:42:00,39.0,38.0,-100.00,North,357,0.0,2.0,98,0.04,,,0.65,1.000000,,2013-05-22 11:42:00,
2013-05-22 04:52:00,39.0,38.0,-100.00,North,357,0.0,2.0,98,0.04,,,0.65,1.000000,,2013-05-22 11:52:00,
2013-05-22 05:02:00,39.0,38.0,-100.00,North,357,0.0,2.0,98,0.04,,,0.65,1.000000,,2013-05-22 12:02:00,
2013-05-22 05:10:00,38.0,37.0,-100.00,East,101,0.0,3.0,97,0.09,,,0.68,1.000000,,2013-05-22 12:10:00,
2013-05-22 05:32:00,38.0,37.0,-100.00,East,101,0.0,3.0,97,0.09,,,0.68,1.000000,,2013-05-22 12:32:00,
2013-05-22 05:42:00,38.0,37.0,-100.00,East,101,0.0,3.0,97,0.09,,,0.68,1.000000,,2013-05-22 12:42:00,
2013-05-22 05:52:00,38.0,37.0,-100.00,East,101,0.0,3.0,97,0.09,,,0.68,1.000000,,2013-05-22 12:52:00,
2013-05-22 06:01:00,38.0,37.0,-100.00,East,101,0.0,3.0,97,0.09,,,0.68,1.000000,,2013-05-22 13:01:00,
2013-05-22 07:10:00,35.0,34.0,-100.00,North,350,0.0,3.0,97,-99.99,,,0.74,10.000000,,2013-05-22 14:10:00,
2013-05-22 07:32:00,35.0,34.0,-100.00,North,350,0.0,3.0,97,-99.99,,,0.74,10.000000,,2013-05-22 14:32:00,
2013-05-22 07:42:00,35.0,34.0,-100.00,North,350,0.0,3.0,97,-99.99,,,0.74,10.000000,,2013-05-22 14:42:00,
2013-05-22 07:52:00,35.0,34.0,-100.00,North,350,0.0,3.0,97,-99.99,,,0.74,10.000000,,2013-05-22 14:52:00,
2013-05-22 08:01:00,35.0,34.0,-100.00,North,350,0.0,3.0,97,-99.99,,,0.74,10.000000,,2013-05-22 15:01:00,
2013-05-22 08:10:00,33.0,32.0,-100.00,North,350,0.0,2.0,97,0.10,,,-99.99,25.000000,,2013-05-22 15:10:00,
2013-05-22 08:33:00,33.0,32.0,-100.00,North,350,0.0,2.0,97,0.10,,,-99.99,25.000000,,2013-05-22 15:33:00,
2013-05-22 08:43:00,33.0,32.0,-100.00,North,350,0.0,2.0,97,0.10,,,-99.99,25.000000,,2013-05-22 15:43:00,
2013-05-22 08:53:00,33.0,32.0,-100.00,North,350,0.0,2.0,97,0.10,,,-99.99,25.000000,,2013-05-22 15:53:00,
2013-05-22 09:03:00,33.0,32.0,-100.00,North,350,0.0,2.0,97,0.10,,,-99.99,25.000000,,2013-05-22 16:03:00,
2013-05-22 09:10:00,33.0,32.0,-100.00,NE,39,0.0,2.0,97,0.01,,,0.82,35.000000,,2013-05-22 16:10:00,
2013-05-22 09:33:00,33.0,32.0,-100.00,NE,39,0.0,2.0,97,0.01,,,0.82,35.000000,,2013-05-22 16:33:00,
2013-05-22 09:42:00,33.0,32.0,-100.00,NE,39,0.0,2.0,97,0.01,,,0.82,35.000000,,2013-05-22 16:42:00,
2013-05-22 09:52:00,33.0,32.0,-100.00,NE,39,0.0,2.0,97,0.01,,,0.82,35.000000,,2013-05-22 16:52:00,
2013-05-22 10:02:00,33.0,32.0,-100.00,NE,39,0.0,2.0,97,0.01,,,0.82,35.000000,,2013-05-22 17:02:00,
2013-05-22 10:10:00,34.0,33.0,-100.00,SSE,159,0.0,0.0,97,0.08,,,0.90,63.000000,,2013-05-22 17:10:00,
2013-05-22 10:33:00,34.0,33.0,-100.00,SSE,159,0.0,0.0,97,0.08,,,0.90,63.000000,,2013-05-22 17:33:00,
2013-05-22 10:42:00,34.0,33.0,-100.00,SSE,159,0.0,0.0,97,0.08,,,0.90,63.000000,,2013-05-22 17:42:00,
2013-05-22 10:53:00,34.0,33.0,-100.00,SSE,159,0.0,0.0,97,0.08,,,0.90,63.000000,,2013-05-22 17:53:00,
2013-05-22 11:02:00,34.0,33.0,-100.00,SSE,159,0.0,0.0,97,0.08,,,0.90,63.000000,,2013-05-22 18:02:00,
2013-05-22 11:10:00,36.0,35.0,-100.00,ENE,60,0.0,0.0,95,0.14,,,1.04,127.000000,,2013-05-22 18:10:00,
2013-05-22 11:34:00,36.0,35.0,-100.00,ENE,60,0.0,0.0,95,0.14,,,1.04,127.000000,,2013-05-22 18:34:00,
2013-05-22 11:42:00,36.0,35.0,-100.00,ENE,60,0.0,0.0,95,0.14,,,1.04,127.000000,,2013-05-22 18:42:00,
2013-05-22 11:52:00,36.0,35.0,-100.00,ENE,60,0.0,0.0,95,0.14,,,1.04,127.000000,,2013-05-22 18:52:00,
2013-05-22 12:02:00,36.0,35.0,-100.00,ENE,60,0.0,0.0,95,0.14,,,1.04,127.000000,,2013-05-22 19:02:00,
2013-05-22 12:10:00,38.0,36.0,-100.00,ENE,60,0.0,3.0,92,0.16,,,1.20,211.000000,,2013-05-22 19:10:00,
2013-05-22 12:32:00,38.0,36.0,-100.00,ENE,60,0.0,3.0,92,0.16,,,1.20,211.000000,,2013-05-22 19:32:00,
2013-05-22 12:42:00,38.0,36.0,-100.00,ENE,60,0.0,3.0,92,0.16,,,1.20,211.000000,,2013-05-22 19:42:00,
2013-05-22 12:52:00,38.0,36.0,-100.00,ENE,60,0.0,3.0,92,0.16,,,1.20,211.000000,,2013-05-22 19:52:00,
2013-05-22 13:02:00,38.0,36.0,-100.00,ENE,60,0.0,3.0,92,0.16,,,1.20,211.000000,,2013-05-22 20:02:00,
2013-05-22 13:10:00,39.0,37.0,-100.00,NE,47,0.0,4.0,92,0.14,,,1.31,197.000000,,2013-05-22 20:10:00,
2013-05-22 13:32:00,39.0,37.0,-100.00,NE,47,0.0,4.0,92,0.14,,,1.31,197.000000,,2013-05-22 20:32:00,
2013-05-22 13:42:00,39.0,37.0,-100.00,NE,47,0.0,4.0,92,0.14,,,1.31,197.000000,,2013-05-22 20:42:00,
2013-05-22 13:52:00,39.0,37.0,-100.00,NE,47,0.0,4.0,92,0.14,,,1.31,197.000000,,2013-05-22 20:52:00,
2013-05-22 14:01:00,39.0,37.0,-100.00,NE,47,0.0,4.0,92,0.14,,,1.31,197.000000,,2013-05-22 21:01:00,
2013-05-22 14:10:00,42.0,39.0,-100.00,SSW,201,1.0,3.0,88,0.02,,,1.27,286.000000,,2013-05-22 21:10:00,
2013-05-22 14:33:00,42.0,39.0,-100.00,SSW,201,1.0,3.0,88,0.02,,,1.27,286.000000,,2013-05-22 21:33:00,
2013-05-22 14:42:00,42.0,39.0,-100.00,SSW,201,1.0,3.0,88,0.02,,,1.27,286.000000,,2013-05-22 21:42:00,
2013-05-22 14:53:00,42.0,39.0,-100.00,SSW,201,1.0,3.0,88,0.02,,,1.27,286.000000,,2013-05-22 21:53:00,
2013-05-22 15:03:00,42.0,39.0,-100.00,SSW,201,1.0,3.0,88,0.02,,,1.27,286.000000,,2013-05-22 22:03:00,
2013-05-22 16:10:00,45.0,41.0,-100.00,NNW,339,2.0,6.0,85,-99.99,,,1.23,441.000000,,2013-05-22 23:10:00,
2013-05-22 16:32:00,45.0,41.0,-100.00,NNW,339,2.0,6.0,85,-99.99,,,1.23,441.000000,,2013-05-22 23:32:00,
2013-05-22 16:42:00,45.0,41.0,-100.00,NNW,339,2.0,6.0,85,-99.99,,,1.23,441.000000,,2013-05-22 23:42:00,
2013-05-22 16:52:00,45.0,41.0,-100.00,NNW,339,2.0,6.0,85,-99.99,,,1.23,441.000000,,2013-05-22 23:52:00,
2013-05-22 17:01:00,45.0,41.0,-100.00,NNW,339,2.0,6.0,85,-99.99,,,1.23,441.000000,,2013-05-23 00:01:00,
2013-05-22 18:10:00,44.0,40.0,-100.00,NNW,343,2.0,7.0,86,-99.99,,,1.19,178.000000,,2013-05-23 01:10:00,
2013-05-22 18:32:00,44.0,40.0,-100.00,NNW,343,2.0,7.0,86,-99.99,,,1.19,178.000000,,2013-05-23 01:32:00,
2013-05-22 18:42:00,44.0,40.0,-100.00,NNW,343,2.0,7.0,86,-99.99,,,1.19,178.000000,,2013-05-23 01:42:00,
2013-05-22 18:52:00,44.0,40.0,-100.00,NNW,343,2.0,7.0,86,-99.99,,,1.19,178.000000,,2013-05-23 01:52:00,
2013-05-22 19:01:00,44.0,40.0,-100.00,NNW,343,2.0,7.0,86,-99.99,,,1.19,178.000000,,2013-05-23 02:01:00,
2013-05-22 19:10:00,44.0,40.0,-100.00,North,4,2.0,6.0,85,0.00,,,1.19,146.000000,,2013-05-23 02:10:00,
2013-05-22 19:32:00,44.0,40.0,-100.00,North,4,2.0,6.0,85,0.00,,,1.19,146.000000,,2013-05-23 02:32:00,
2013-05-22 19:42:00,44.0,40.0,-100.00,North,4,2.0,6.0,85,0.00,,,1.19,146.000000,,2013-05-23 02:42:00,
2013-05-22 19:51:00,44.0,40.0,-100.00,North,4,2.0,6.0,85,0.00,,,1.19,146.000000,,2013-05-23 02:51:00,
2013-05-22 20:01:00,44.0,40.0,-100.00,North,4,2.0,6.0,85,0.00,,,1.19,146.000000,,2013-05-23 03:01:00,
2013-05-22 20:10:00,42.0,41.0,-100.00,NNW,328,0.0,4.0,95,0.00,,,1.18,69.000000,,2013-05-23 03:10:00,
2013-05-22 20:33:00,42.0,41.0,-100.00,NNW,328,0.0,4.0,95,0.00,,,1.18,69.000000,,2013-05-23 03:33:00,
2013-05-22 20:43:00,42.0,41.0,-100.00,NNW,328,0.0,4.0,95,0.00,,,1.18,69.000000,,2013-05-23 03:43:00,
2013-05-22 20:53:00,42.0,41.0,-100.00,NNW,328,0.0,4.0,95,0.00,,,1.18,69.000000,,2013-05-23 03:53:00,
2013-05-22 21:02:00,42.0,41.0,-100.00,NNW,328,0.0,4.0,95,0.00,,,1.18,69.000000,,2013-05-23 04:02:00,
2013-05-22 21:10:00,39.0,38.0,-100.00,NNW,346,0.0,0.0,96,0.00,,,1.15,14.000000,,2013-05-23 04:10:00,
2013-05-22 21:33:00,39.0,38.0,-100.00,NNW,346,0.0,0.0,96,0.00,,,1.15,14.000000,,2013-05-23 04:33:00,
2013-05-22 21:43:00,39.0,38.0,-100.00,NNW,346,0.0,0.0,96,0.00,,,1.15,14.000000,,2013-05-23 04:43:00,
2013-05-22 21:52:00,39.0,38.0,-100.00,NNW,346,0.0,0.0,96,0.00,,,1.15,14.000000,,2013-05-23 04:52:00,
2013-05-22 22:02:00,39.0,38.0,-100.00,NNW,346,0.0,0.0,96,0.00,,,1.15,14.000000,,2013-05-23 05:02:00,
2013-05-22 22:10:00,38.0,37.0,-100.00,NNW,346,0.0,0.0,98,0.00,,,1.09,1.000000,,2013-05-23 05:10:00,
2013-05-22 22:32:00,38.0,37.0,-100.00,NNW,346,0.0,0.0,98,0.00,,,1.09,1.000000,,2013-05-23 05:32:00,
2013-05-22 22:43:00,38.0,37.0,-100.00,NNW,346,0.0,0.0,98,0.00,,,1.09,1.000000,,2013-05-23 05:43:00,
2013-05-22 22:52:00,38.0,37.0,-100.00,NNW,346,0.0,0.0,98,0.00,,,1.09,1.000000,,2013-05-23 05:52:00,
2013-05-22 23:02:00,38.0,37.0,-100.00,NNW,346,0.0,0.0,98,0.00,,,1.09,1.000000,,2013-05-23 06:02:00,
2013-05-22 23:10:00,38.0,37.0,-100.00,NNW,346,0.0,0.0,98,0.00,,,1.08,1.000000,,2013-05-23 06:10:00,
2013-05-22 23:32:00,38.0,37.0,-100.00,NNW,346,0.0,0.0,98,0.00,,,1.08,1.000000,,2013-05-23 06:32:00,
2013-05-22 23:42:00,38.0,37.0,-100.00,NNW,346,0.0,0.0,98,0.00,,,1.08,1.000000,,2013-05-23 06:42:00,
2013-05-22 23:52:00,38.0,37.0,-100.00,NNW,346,0.0,0.0,98,0.00,,,1.08,1.000000,,2013-05-23 06:52:00,